Miscellaneous Local Product
Issued by NWS Hastings, NE

Home | Current Version | Previous Version | Graphics & Text | Print | Product List | Glossary On
Versions: 1 2 3 4 5 6 7 8 9 10 11 12 13 14 15 16 17 18 19 20 21 22 23 24 25 26 27 28 29 30 31 32 33 34 35 36 37 38 39 40 41 42 43 44 45 46 47 48 49 50
000
AXUS43 KGID 310402
MISGRI

GID CWA HOURLY WEATHER ROUNDUP
NATIONAL WEATHER SERVICE HASTINGS NE
1000 PM CST FRI JAN 30 2015

NOTE: "FAIR" INDICATES FEW OR NO CLOUDS BELOW 12,000 FEET WITH NO
SIGNIFICANT WEATHER AND/OR OBSTRUCTIONS TO VISIBILITY.

...SOUTH CENTRAL NEBRASKA...

CITY           SKY/WX    TMP DP  RH WIND       PRES   REMARKS
GRAND ISLAND   CLOUDY    41  29  62 SW15      30.22F
HASTINGS       CLOUDY    38  32  79 SW15G21   30.23R WCI  29
KEARNEY        CLOUDY    37  30  75 SW15G22   30.22S WCI  28
ORD            CLOUDY    39  26  59 S7        30.17S WCI  34
YORK           CLOUDY    37  27  65 S9        30.24F WCI  31
AURORA         CLOUDY    40  27  60 S8        30.22F WCI  34
LEXINGTON      CLOUDY    40  32  74 S12G18    30.20S WCI  32
HOLDREGE       DRIZZLE   36  32  87 S13       30.22S WCI  27
HEBRON         CLOUDY    39  29  66 SW12      30.28R WCI  32

...NEBRASKA PANHANDLE...

CITY           SKY/WX    TMP DP  RH WIND       PRES   REMARKS
CHADRON        CLOUDY    29  24  82 W5        30.11F WCI  24
ALLIANCE       CLOUDY    32  27  81 N5        30.07F WCI  27
SCOTTSBLUFF    CLOUDY    35  28  75 N7        30.08F WCI  29
SIDNEY         CLOUDY    36  27  69 N9        30.06F WCI  29

...WESTERN AND NORTH CENTRAL NEBRASKA...

CITY           SKY/WX    TMP DP  RH WIND       PRES   REMARKS
VALENTINE      CLOUDY    33  26  75 CALM      30.11F
AINSWORTH      CLOUDY    36  28  71 SW7       30.12F WCI  30
ONEILL         CLOUDY    36  28  73 S6        30.16S WCI  31
BROKEN BOW     CLOUDY    40  30  67 S16G24    30.16S WCI  31
IMPERIAL       CLOUDY    38  31  76 S10       30.11S WCI  31
NORTH PLATTE   CLOUDY    39  31  72 SE9       30.13F WCI  33
MCCOOK         CLOUDY    37  34  89 S6        30.17F WCI  32

...EASTERN NEBRASKA...

CITY           SKY/WX    TMP DP  RH WIND       PRES   REMARKS
NORFOLK        CLOUDY    36  27  69 S9        30.18F WCI  29
SO SIOUX CITY  MOCLDY    28  24  85 SE7       30.22F WCI  21
TEKAMAH        CLOUDY    33  25  72 S9        30.24F WCI  25
COLUMBUS       CLOUDY    37  25  60 S12       30.23F WCI  30
ALBION         CLOUDY    37  26  66 S6        30.19F WCI  32
OMAHA EPPLEY   CLOUDY    33  25  72 S12       30.28F WCI  24
OFFUTT AFB     CLOUDY    31  24  77 SE6       30.28F WCI  25
MILLARD        CLOUDY    33  25  72 SE5       30.28F WCI  28
LINCOLN        CLOUDY    34  26  72 S8        30.28F WCI  27
NEBRASKA CITY  CLOUDY    32  22  66 S10       30.30F WCI  24
BEATRICE       CLOUDY    35  26  69 S8        30.28F WCI  28
FALLS CITY     CLOUDY    32  21  64 S7        30.33S WCI  26

...NORTHERN KANSAS...

CITY           SKY/WX    TMP DP  RH WIND       PRES   REMARKS
GOODLAND       CLOUDY    33  32  96 S15       30.11F WCI  23
HILL CITY      LGT SNOW  34  32  92 S6        30.23F FOG     WCI  29
NORTON         LGT RAIN  34  30  86 S7        30.20  WCI  28
PHILLIPSBURG   DRIZZLE   37  37 100 S10       30.26F WCI  30
SMITH CENTER   LGT RAIN  34  34 100 S8        30.28F WCI  27
BELOIT         CLOUDY    37  36  93 CALM      30.30S
HAYS           CLOUDY    36  27  69 S9        30.25F WCI  29
RUSSELL        LGT SNOW  35  32  88 S13       30.26F FOG     WCI  26
CONCORDIA      LGT RAIN  36  34  92 S10       30.31S FOG     WCI  28
SALINA         LGT RAIN  38  33  82 S6        30.33S WCI  33
TOPEKA         CLOUDY    39  24  55 S5        30.36F



USA.gov is the U.S. government's official web portal to all federal, state and local government web resources and services.